Port Angeles, WA
on Friday, January 4, 2013

Friday
Previous Day Next Day
Daily Summary
 ActualAverageRecord
Temperature
Mean Temperature °F °F  
Max Temperature 45°F 44°F 56°F (1984)
Min Temperature 36°F 33°F 14°F (1959)
Degree Days
Heating Degree Days 24    
Moisture
Dew Point 38°F   
Average Humidity 88    
Maximum Humidity 96    
Minimum Humidity 76    
Precipitation
Precipitation 0.00 in in in ()
Wind
Wind Speed 4 mph   
Max Wind Speed 8 mph   
Max Gust Speed mph   
Visibility 10 miles   
Events Rain   
Averages and records for this station are not official NWS values.
Key: T is trace of precipitation, MM is missing value
Source: NWS Daily Summary
Seasonal Weather Averages
Time(PST)TemperatureDew PointHumidity Pressure Visibility Wind DirectionWind SpeedGust SpeedPrecipitationEvents Conditions
12:21 AM 37.9°F 35.1°F 89% 30.09 in 10.0 miles WSW 6.9 mph - N/A   Overcast
12:53 AM 36.0°F 34.0°F 93% 30.11 in 10.0 miles SW 4.6 mph - N/A   Overcast
1:43 AM 37.0°F 34.0°F 89% 30.13 in 10.0 miles WSW 5.8 mph - N/A   Overcast
1:53 AM 37.0°F 35.1°F 93% 30.15 in 10.0 miles WSW 8.1 mph - N/A   Overcast
2:07 AM 37.9°F 35.1°F 89% 30.15 in 10.0 miles WSW 5.8 mph - N/A   Overcast
2:53 AM 41.0°F 37.9°F 89% 30.18 in 10.0 miles West 3.5 mph - N/A   Overcast
3:53 AM 37.9°F 35.1°F 89% 30.19 in 10.0 miles SW 3.5 mph - N/A   Overcast
4:53 AM 37.4°F 35.6°F 93% 30.19 in 10.0 miles SW 3.5 mph - N/A   Overcast
5:53 AM 37.9°F 36.0°F 93% 30.22 in 10.0 miles SSW 3.5 mph - N/A   Overcast
6:53 AM 39.0°F 37.0°F 93% 30.23 in 10.0 miles Calm Calm - 0.00 in Rain Light Rain
7:53 AM 39.0°F 37.9°F 96% 30.24 in 10.0 miles Calm Calm - 0.00 in   Overcast
8:53 AM 39.9°F 37.9°F 93% 30.26 in 10.0 miles South 3.5 mph - 0.00 in   Overcast
9:09 AM 39.9°F 37.9°F 93% 30.26 in 10.0 miles Calm Calm - N/A   Mostly Cloudy
9:53 AM 45.0°F 39.9°F 82% 30.28 in 10.0 miles Calm Calm - N/A   Overcast
10:27 AM 45.0°F 39.9°F 82% 30.28 in 10.0 miles Variable 4.6 mph - N/A   Mostly Cloudy
10:53 AM 45.0°F 37.9°F 76% 30.29 in 10.0 miles SE 3.5 mph - N/A   Partly Cloudy
11:53 AM 44.1°F 37.9°F 79% 30.29 in 10.0 miles NE 4.6 mph - N/A   Partly Cloudy
12:15 PM 45.0°F 39.0°F 80% 30.28 in 10.0 miles Variable 3.5 mph - N/A   Mostly Cloudy
12:53 PM 44.1°F 39.0°F 82% 30.28 in 10.0 miles East 5.8 mph - N/A   Overcast
1:53 PM 45.0°F 39.9°F 82% 30.27 in 10.0 miles ESE 6.9 mph - N/A   Overcast
2:21 PM 44.1°F 39.9°F 85% 30.25 in 10.0 miles ESE 5.8 mph - N/A   Overcast
2:53 PM 44.1°F 39.9°F 85% 30.26 in 10.0 miles ESE 6.9 mph - N/A   Overcast
3:53 PM 44.1°F 39.9°F 85% 30.27 in 10.0 miles SE 3.5 mph - N/A   Overcast
4:53 PM 42.8°F 39.2°F 87% 30.23 in 10.0 miles SSE 4.6 mph - N/A   Overcast
5:07 PM 44.1°F 39.9°F 85% 30.23 in 10.0 miles SE 4.6 mph - N/A   Overcast
5:46 PM 44.1°F 39.9°F 85% 30.22 in 10.0 miles East 3.5 mph - N/A   Overcast
5:53 PM 44.1°F 39.9°F 85% 30.23 in 10.0 miles Calm Calm - N/A   Overcast
6:53 PM 43.0°F 39.9°F 89% 30.22 in 10.0 miles Calm Calm - N/A   Overcast
7:53 PM 43.0°F 39.9°F 89% 30.21 in 10.0 miles Calm Calm - N/A   Overcast
8:16 PM 43.0°F 39.9°F 89% 30.19 in 10.0 miles ENE 3.5 mph - N/A   Overcast
8:29 PM 43.0°F 39.9°F 89% 30.19 in 10.0 miles Calm Calm - N/A   Overcast
8:53 PM 43.0°F 39.9°F 89% 30.19 in 10.0 miles SE 6.9 mph - N/A   Overcast
9:22 PM 42.1°F 39.9°F 92% 30.18 in 10.0 miles SSE 3.5 mph - N/A   Overcast
9:49 PM 42.8°F 39.2°F 87% 30.18 in 10.0 miles SE 3.5 mph - N/A   Overcast
9:53 PM 42.1°F 39.9°F 92% 30.18 in 10.0 miles SE 4.6 mph - N/A   Overcast
10:53 PM 43.0°F 39.9°F 89% 30.18 in 10.0 miles ESE 4.6 mph - N/A   Overcast
11:53 PM 44.1°F 39.9°F 85% 30.16 in 10.0 miles ESE 4.6 mph - N/A   Overcast
Moon Phase
Jan. 04 Jan. 04 Jan. 11 Jan. 18 Jan. 26
Sunrise:08:03 AM (PST) Moon Rise:No Moon Rise/
Sunset:04:34 PM (PST) Moon Set:11:13 AM (PST)1/4

Copyright © 2014 The Weather Underground, Inc.